Regional Weather Roundup
Issued by NWS Cleveland, OH

Home | Current Version | Previous Version | Graphics & Text | Print | Product List | Glossary On
Versions: 1 2 3 4 5 6 7 8 9 10 11 12 13 14 15 16 17 18 19 20 21 22 23 24 25 26 27 28 29 30 31 32 33 34 35 36 37 38 39 40 41 42 43 44 45 46 47 48 49 50
000
ASUS41 KCLE 181510
RWRCLE
OHIO REGIONAL WEATHER ROUNDUP
NATIONAL WEATHER SERVICE WILMINGTON, OH
1100 AM EDT FRI APR 18 2014

NOTE: "FAIR" INDICATES FEW OR NO CLOUDS BELOW 12,000 FEET WITH NO
SIGNIFICANT WEATHER AND/OR OBSTRUCTIONS TO VISIBILITY.

OHZ001>008-015>018-024>027-034-035-043-044-181600-
   NORTHWEST OHIO

CITY           SKY/WX    TMP DP  RH WIND       PRES   REMARKS
DEFIANCE       CLOUDY    60  40  47 VRB3      30.28S
FINDLAY        MOSUNNY   60  41  49 E5        30.28S
TOLEDO EXPRESS CLOUDY    58  39  49 CALM      30.27S
TOLEDO METCALF MOSUNNY   60  41  49 CALM      30.29S
LIMA           MOSUNNY   60  41  49 VRB6      30.29R
$$

OHZ009>014-019>023-028>033-038-089-181600-
   NORTHEAST OHIO

CITY           SKY/WX    TMP DP  RH WIND       PRES   REMARKS
CLE-HOPKINS    CLOUDY    57  35  43 W5        30.31S
CLE-LAKEFRONT  CLOUDY    51  37  58 W6        30.28S
CUY CO. ARPT   CLOUDY    55  36  47 NW12      30.29S
LORAIN-ELYRIA  CLOUDY    59  36  42 N5        30.29S
ASHTABULA      CLOUDY    55  30  38 S8        30.30S
AKRON-CANTON   CLOUDY    56  30  37 SW9       30.29F
WOOSTER        PTSUNNY   56  34  43 W5        30.29F
MANSFIELD      PTSUNNY   58  34  40 CALM      30.29S
YOUNGSTOWN     CLOUDY    55  30  38 VRB7      30.30R
$$

OHZ042-051>053-060>062-070>072-077>081-181600-
  SOUTHWEST OHIO

CITY           SKY/WX    TMP DP  RH WIND       PRES   REMARKS
CINC-COVINGTON PTSUNNY   63  39  41 W3        30.30S
CINC-LUNKEN    PTSUNNY   54  43  66 S3        30.32S
HAMILTON       MOSUNNY   62  42  47 CALM      30.31S
DAYTON         PTSUNNY   61  37  41 CALM      30.30S
WRIGHT-PAT AFB PTSUNNY   59  39  47 CALM      30.29F
DAYTON GENERAL PTSUNNY   61  38  42 CALM      30.29S
WILMINGTON     PTSUNNY   60  38  43 NW6       30.30S
$$

OHZ036-037-039>041-045>050-054>059-063>069-073>076-082>088-181600-
  CENTRAL AND SOUTHEAST OHIO

CITY           SKY/WX    TMP DP  RH WIND       PRES   REMARKS
COLUMBUS       PTSUNNY   58  32  37 SW3       30.30R
OSU AIRPORT    PTSUNNY   60  35  39 CALM      30.29S
BOLTON FIELD   SUNNY     59  39  47 S3        30.30R
RICKENBACK AFB PTSUNNY   58  31  36 SW5       30.29F
NEWARK         PTSUNNY   56  33  42 VRB5      30.29S
MARION         MOSUNNY   59  37  44 N5        30.29S
LANCASTER      PTSUNNY   61  33  35 NW6       30.30S
ZANESVILLE     CLOUDY    54  29  38 SW3       30.30S
NEW PHILLY     CLOUDY    55  26  32 SW6       30.31S
$$



USA.gov is the U.S. government's official web portal to all federal, state and local government web resources and services.